Weather Roundup
Issued by NWS

Home | Current Version | Previous Version | Text Only | Print | Product List | Glossary On
Versions: 1 2 3 4 5 6 7 8 9 10 11 12 13 14 15 16 17 18 19 20 21 22 23 24 25 26 27 28 29 30 31 32 33 34 35 36 37 38 39 40 41 42 43 44 45 46 47 48 49 50
197
NZUS93 KARX 272059
HRRWXR

CURRENT HOURLY OBSERVATIONS ACROSS
MUCH OF THE UPPER MISSISSIPPI VALLEY
NATIONAL WEATHER SERVICE LA CROSSE WI
400 PM CDT SAT MAY 27 2017


...SOUTHEAST MINNESOTA...


CITY           SKY/WX    TMP DP  RH WIND       PRES   REMARKS
ROCHESTER      CLOUDY    67  49  52 NW8       29.89F
ROCHESTER/MAYO FAIR      69  43  39 W5        29.89F
WINONA         CLOUDY    70  48  46 N5        29.87F
AUSTIN         CLOUDY    66  48  52 NW6       29.89F
ALBERT LEA     DRIZZLE   68  50  52 N5        29.89F
DODGE CENTER   CLOUDY    64  45  48 NW8       29.90F
PRESTON        CLOUDY    66  46  47 N9        29.88F
OWATONNA       CLOUDY    68  45  42 CALM      29.90F
FARIBAULT      CLOUDY    68  45  42 CALM      29.90F
$$

...ELSEWHERE IN MINNESOTA...


CITY           SKY/WX    TMP DP  RH WIND       PRES   REMARKS
MINNEAPOLIS    CLOUDY    69  50  50 S12       29.88F
INTNL FALLS    MOSUNNY   73  36  25 W14G21    29.73F
DULUTH         CLOUDY    75  40  28 SW13G21   29.82F
RED WING       CLOUDY    70  45  40 W7        29.88F
REDWOOD FALLS  CLOUDY    71  37  28 VRB6      29.87F
MANKATO          N/A     68  43  40 VRB3      29.90F
WORTHINGTON    CLOUDY    66  49  54 VRB7      29.92F
FAIRMONT       CLOUDY    66  50  56 NW7       29.90F
$$

...SOUTHWEST WISCONSIN...


CITY           SKY/WX    TMP DP  RH WIND       PRES   REMARKS
LA CROSSE      CLOUDY    74  52  46 NW12      29.85F
PRAIRIE DU CHI CLOUDY    72  56  56 CALM      29.84F
BOSCOBEL       CLOUDY    76  57  51 CALM      29.83F
LONE ROCK      NOT AVBL
PLATTEVILLE    CLOUDY    72  63  72 CALM      29.86F
FORT MC COY    CLOUDY    73  52  47 NW7       29.87F
MAUSTON-NEW LI MOCLDY    74  51  44 NW7       29.85F
VIROQUA        FAIR      72  50  45 SW8       29.87F
WIS DELLS      CLOUDY    71  55  55 SW5       29.86F
$$

...ELSEWHERE IN WISCONSIN...


CITY           SKY/WX    TMP DP  RH WIND       PRES   REMARKS
MILWAUKEE      CLOUDY    69  54  58 SE14      29.87F
MADISON        CLOUDY    74  59  59 VRB7      29.85F
GREEN BAY      PTSUNNY   75  59  57 S9        29.85F
EAU CLAIRE     CLOUDY    68  46  45 W6        29.86F
BLACK RVR FLS  FAIR      74  46  36 NW9G17    29.86F
MEDFORD        PTSUNNY   66  48  52 W8        29.89S
WAUSAU         CLOUDY    72  50  45 NW13      29.85F
WIS RAPIDS     MOSUNNY   75  51  43 W10       29.86F
MARSHFIELD     CLOUDY    71  49  45 NW15      29.86F
RICE LAKE      PTSUNNY   70  43  37 W8        29.88F
$$

...NORTHEAST IOWA...


CITY           SKY/WX    TMP DP  RH WIND       PRES   REMARKS
WATERLOO       LGT RAIN  65  56  72 NW7       29.85S
DUBUQUE        MOSUNNY   74  62  66 E6        29.84F
DECORAH        CLOUDY    72  50  46 N5        29.85F
MASON CITY     CLOUDY    68  46  45 NE9       29.89F
CHARLES CITY   CLOUDY    70  46  43 NW9       29.88S
OELWEIN        CLOUDY    73  54  49 N12G17    29.86S
$$

...ELSEWHERE IN IOWA...


CITY           SKY/WX    TMP DP  RH WIND       PRES   REMARKS
DES MOINES     PTSUNNY   66  58  75 N15       29.85S
IOWA CITY      CLOUDY    73  62  68 SE8       29.85R
FORT DODGE     CLOUDY    66  52  59 NE13      29.87F
MARSHALLTOWN   RAIN      59  57  93 N16       29.86R FOG
CEDAR RAPIDS   LGT RAIN  70  64  81 E6        29.83S
$$

...NORTHERN ILLINOIS...


CITY           SKY/WX    TMP DP  RH WIND       PRES   REMARKS
CHICAGO-OHARE  CLOUDY    77  58  51 E14       29.85F
CHICAGO-MIDWAY CLOUDY    73  57  57 E10       29.86F
MOLINE         CLOUDY    74  61  63 SE3       29.86R
ROCKFORD       PTSUNNY   76  61  59 CALM      29.87F
PEORIA         MOSUNNY   76  61  59 CALM      29.87R
$$

NOTE: "FAIR" INDICATES FEW OR NO CLOUDS BELOW 12,000 FEET WITH NO
SIGNIFICANT WEATHER AND/OR OBSTRUCTIONS TO VISIBILITY. WIND
SPEEDS ARE IN MILES-PER-HOUR.




USA.gov is the U.S. government's official web portal to all federal, state and local government web resources and services.